datetime,ave dewpoint
2000-05-03,41.58
2000-05-04,34.59
2000-05-05,31.87
2000-05-06,32.79
2000-05-07,40.14
2000-05-08,39.95
2000-05-09,37.32
2000-05-10,29.24
2000-05-11,30.56
2000-05-12,31.01
2000-05-13,36.49
2000-05-14,38.51
2000-05-15,38.92
2000-05-16,41.79
2000-05-17,38.75
2000-05-18,36.81
2000-05-19,43.65
2000-05-20,42.52
2000-05-21,46.93
2000-05-22,48.78
2000-05-23,48.71
2000-05-24,48.94
2000-05-25,42.39
2000-05-26,44.31
2000-05-27,47.72
2000-05-28,39.11
2000-05-29,36.87
2000-05-30,32.22
2000-05-31,29.68
2000-06-01,36.19
2000-06-02,42.57
2000-06-03,43.6
2000-06-04,44.16
2000-06-05,40.01
2000-06-06,43.8
2000-06-07,45.24
2000-06-08,41.18
2000-06-09,38.95
2000-06-10,34.38
2000-06-11,42.57
2000-06-12,48.22
2000-06-13,50.11
2000-06-14,49.7
2000-06-15,46.14
2000-06-16,36.92
2000-06-17,40.66
2000-06-18,45.99
2000-06-19,41.18
2000-06-20,42.7
2000-06-21,50.4
2000-06-22,48.97
2000-06-23,48.38
2000-06-24,49.06
2000-06-25,47.31
2000-06-26,46.18
2000-06-27,43.34
2000-06-28,49.09
2000-06-29,49.58
2000-06-30,46.93
2000-07-01,46.0
2000-07-02,39.75
2000-07-03,39.02
2000-07-04,42.17
2000-07-05,46.92
2000-07-06,46.52
2000-07-07,46.7
2000-07-08,49.07
2000-07-09,46.14
2000-07-10,47.22
2000-07-11,50.5
2000-07-12,50.45
2000-07-13,49.65
2000-07-14,49.02
2000-07-15,47.78
2000-07-16,46.26
2000-07-17,53.63
2000-07-18,54.68
2000-07-19,51.82
2000-07-20,51.24
2000-07-21,54.49
2000-07-22,50.73
2000-07-23,48.4
2000-07-24,49.95
2000-07-25,47.88
2000-07-26,47.46
2000-07-27,48.14
2000-07-28,52.97
2000-07-29,54.31
2000-07-30,57.38
2000-07-31,57.35
2000-08-01,52.84
2000-08-02,49.97
2000-08-03,51.72
2000-08-04,50.6
2000-08-05,52.55
2000-08-06,51.32
2000-08-07,51.11
2000-08-08,51.17
2000-08-09,54.8
2000-08-10,50.49
2000-08-11,47.55
2000-08-12,47.0
2000-08-13,43.68
2000-08-14,44.99
2000-08-15,42.65
2000-08-16,45.69
2000-08-17,45.28
2000-08-18,43.82
2000-08-19,43.97
2000-08-20,41.61
2000-08-21,45.32
2000-08-22,47.19
2000-08-23,47.43
2000-08-24,47.15
2000-08-25,48.94
2000-08-26,48.58
2000-08-27,46.88
2000-08-28,43.02
2000-08-29,44.05
2000-08-30,45.28
2000-08-31,45.24
2000-09-01,40.37
2000-09-02,39.29
2000-09-03,38.87
2000-09-04,39.07
2000-09-05,39.71
2000-09-06,42.05
2000-09-07,42.18
2000-09-08,42.44
2000-09-09,37.65
2000-09-10,47.08
2000-09-11,52.05
2000-09-12,50.53
2000-09-13,52.42
2000-09-14,52.17
2000-09-15,51.5
2000-09-16,51.7
2000-09-17,51.03
2000-09-18,51.86
2000-09-19,51.31
2000-09-20,41.73
2000-09-21,43.01
2000-09-22,32.9
2000-09-23,26.66
2000-09-24,29.84
2000-09-25,33.15
2000-09-26,36.17
2000-09-27,39.31
2000-09-28,42.44
2000-09-29,44.31
2000-09-30,46.46
2000-10-01,46.56
2000-10-02,36.22
2000-10-03,33.02
2000-10-04,31.09
2000-10-05,32.24
2000-10-06,33.46
2000-10-07,35.49
2000-10-08,38.66
2000-10-09,40.75
2000-10-10,36.21
2000-10-11,38.3
2000-10-12,38.29
2000-10-13,39.13
2000-10-14,36.95
2000-10-15,36.02
2000-10-16,34.62
2000-10-17,35.53
2000-10-18,39.53
2000-10-19,41.39
2000-10-20,40.59
2000-10-21,30.72
2000-10-22,25.73
2000-10-23,27.8
2000-10-24,34.05
2000-10-25,37.73
2000-10-26,37.01
2000-10-27,35.29
2000-10-28,35.78
2000-10-29,34.52
2000-10-30,32.93
2000-10-31,31.61
2000-11-01,32.63
2000-11-02,39.48
2000-11-03,39.84
2000-11-04,34.09
2000-11-05,30.87
2000-11-06,27.52
2000-11-07,29.73
2000-11-08,31.46
2000-11-09,25.75
2000-11-10,22.79
2000-11-11,20.17
2000-11-12,21.7
2000-11-13,24.09
2000-11-14,27.35
2000-11-15,23.86
2000-11-16,12.64
2000-11-17,11.97
2000-11-18,13.66
2000-11-19,18.17
2000-11-20,19.55
2000-11-21,22.73
2000-11-22,18.74
2000-11-23,25.0
2000-11-24,29.85
2000-11-25,28.58
2000-11-26,33.31
2000-11-27,34.5
2000-11-28,33.32
2000-11-29,34.38
2000-11-30,32.6
2000-12-01,29.01
2000-12-02,30.08
2000-12-03,30.41
2000-12-04,29.35
2000-12-05,27.94
2000-12-06,27.24
2000-12-07,26.67
2000-12-08,30.9
2000-12-09,35.44
2000-12-10,23.49
2000-12-11,26.19
2000-12-12,22.92
2000-12-13,32.17
2000-12-14,32.75
2000-12-15,29.28
2000-12-16,28.65
2000-12-17,21.25
2000-12-18,15.31
2000-12-19,23.07
2000-12-20,29.13
2000-12-21,29.46
2000-12-22,31.56
2000-12-23,31.17
2000-12-24,24.27
2000-12-25,20.26
2000-12-26,21.58
2000-12-27,24.82
2000-12-28,21.83
2000-12-29,22.29
2000-12-30,22.26
2000-12-31,24.35
2001-01-01,24.82
2001-01-02,25.7
2001-01-03,24.06
2001-01-04,26.83
2001-01-05,27.44
2001-01-06,26.03
2001-01-07,26.09
2001-01-08,29.85
2001-01-09,29.36
2001-01-10,28.29
2001-01-11,31.21
2001-01-12,24.82
2001-01-13,28.15
2001-01-14,21.26
2001-01-15,16.21
2001-01-16,10.55
2001-01-17,10.69
2001-01-18,20.86
2001-01-19,23.81
2001-01-20,20.41
2001-01-21,29.16
2001-01-22,27.72
2001-01-23,27.85
2001-01-24,27.89
2001-01-25,24.87
2001-01-26,25.23
2001-01-27,22.42
2001-01-28,17.63
2001-01-29,23.35
2001-01-30,16.02
2001-01-31,14.61
2001-02-01,20.74
2001-02-02,32.6
2001-02-03,35.6
2001-02-04,37.54
2001-02-05,29.75
2001-02-06,21.35
2001-02-07,15.26
2001-02-08,18.44
2001-02-09,27.71
2001-02-10,22.95
2001-02-11,21.37
2001-02-12,15.48
2001-02-13,13.22
2001-02-14,17.71
2001-02-15,20.77
2001-02-16,30.48
2001-02-17,29.51
2001-02-18,31.82
2001-02-19,32.66
2001-02-20,33.04
2001-02-21,32.76
2001-02-22,30.74
2001-02-23,28.03
2001-02-24,29.71
2001-02-25,29.33
2001-02-26,26.95
2001-02-27,22.27
2001-02-28,20.93
2001-03-01,27.95
2001-03-02,25.79
2001-03-03,23.82
2001-03-04,34.76
2001-03-05,35.51
2001-03-06,34.71
2001-03-07,37.43
2001-03-08,31.84
2001-03-09,27.5
2001-03-10,27.06
2001-03-11,26.76
2001-03-12,32.3
2001-03-13,29.21
2001-03-14,23.55
2001-03-15,31.63
2001-03-16,21.14
2001-03-17,37.77
2001-03-18,44.15
2001-03-19,42.03
2001-03-20,41.34
2001-03-21,42.52
2001-03-22,42.42
2001-03-23,43.44
2001-03-24,41.28
2001-03-25,32.88
2001-03-26,27.81
2001-03-27,35.38
2001-03-28,39.07
2001-03-29,35.78
2001-03-30,35.7
2001-03-31,39.49
2001-04-01,30.18
2001-04-02,22.56
2001-04-03,20.27
2001-04-04,20.11
2001-04-05,23.25
2001-04-06,29.83
2001-04-07,21.09
2001-04-08,23.47
2001-04-09,22.34
2001-04-10,28.73
2001-04-11,26.44
2001-04-12,25.93
2001-04-13,25.11
2001-04-14,24.56
2001-04-15,29.84
2001-04-16,31.74
2001-04-17,34.8
2001-04-18,35.23
2001-04-19,31.27
2001-04-20,30.37
2001-04-21,31.17
2001-04-22,35.1
2001-04-23,39.08
2001-04-24,39.47
2001-04-25,43.3
2001-04-26,44.33
2001-04-27,40.58
2001-04-28,31.54
2001-04-29,34.97
2001-04-30,40.55
2001-05-01,26.2
2001-05-02,23.71
2001-05-03,24.78
2001-05-04,34.19
2001-05-05,30.74
2001-05-06,33.49
2001-05-07,38.67
2001-05-08,37.53
2001-05-09,35.27
2001-05-10,36.62
2001-05-11,39.87
2001-05-12,42.1
2001-05-13,38.52
2001-05-14,39.54
2001-05-15,44.96
2001-05-16,36.64
2001-05-17,38.46
2001-05-18,40.11
2001-05-19,40.82
2001-05-20,42.92
2001-05-21,40.86
2001-05-22,44.77
2001-05-23,50.46
2001-05-24,49.64
2001-05-25,48.86
2001-05-26,47.49
2001-05-27,43.99
2001-05-28,35.5
2001-05-29,33.25
2001-05-30,43.46
2001-05-31,45.16
2001-06-01,44.36
2001-06-02,33.28
2001-06-03,29.93
2001-06-04,30.96
2001-06-05,39.35
2001-06-06,41.13
2001-06-07,46.36
2001-06-08,47.34
2001-06-09,41.45
2001-06-10,40.57
2001-06-11,40.38
2001-06-12,31.49
2001-06-13,34.86
2001-06-14,39.76
2001-06-15,36.5
2001-06-16,37.12
2001-06-17,35.75
2001-06-18,31.56
2001-06-19,38.4
2001-06-20,46.43
2001-06-21,47.32
2001-06-22,43.64
2001-06-23,42.69
2001-06-24,38.32
2001-06-25,40.72
2001-06-26,49.03
2001-06-27,46.9
2001-06-28,45.7
2001-06-29,46.81
2001-06-30,48.9
2001-07-01,47.36
2001-07-02,47.02
2001-07-03,53.74
2001-07-04,56.1
2001-07-05,53.52
2001-07-06,43.96
2001-07-07,47.81
2001-07-08,48.15
2001-07-09,48.72
2001-07-10,52.63
2001-07-11,53.99
2001-07-12,50.11
2001-07-13,45.84
2001-07-14,47.67
2001-07-15,44.15
2001-07-16,41.47
2001-07-17,41.05
2001-07-18,44.4
2001-07-19,49.06
2001-07-20,47.46
2001-07-21,43.49
2001-07-22,44.34
2001-07-23,48.56
2001-07-24,49.67
2001-07-25,46.59
2001-07-26,43.55
2001-07-27,44.91
2001-07-28,43.78
2001-07-29,43.53
2001-07-30,47.6
2001-07-31,43.0
2001-08-01,45.59
2001-08-02,46.56
2001-08-03,47.8
2001-08-04,49.28
2001-08-05,48.23
2001-08-06,50.95
2001-08-07,52.95
2001-08-08,52.43
2001-08-09,51.98
2001-08-10,51.62
2001-08-11,51.02
2001-08-12,50.0
2001-08-13,48.59
2001-08-14,49.74
2001-08-15,49.91
2001-08-16,49.2
2001-08-17,45.87
2001-08-18,45.64
2001-08-19,40.57
2001-08-20,40.75
2001-08-21,41.7
2001-08-22,49.92
2001-08-23,46.21
2001-08-24,43.65
2001-08-25,43.36
2001-08-26,46.25
2001-08-27,45.12
2001-08-28,44.44
2001-08-29,49.15
2001-08-30,48.17
2001-08-31,46.45
2001-09-01,46.39
2001-09-02,44.6
2001-09-03,44.18
2001-09-04,43.89
2001-09-05,38.21
2001-09-06,31.91
2001-09-07,34.24
2001-09-08,31.54
2001-09-09,36.96
2001-09-10,41.02
2001-09-11,41.67
2001-09-12,46.32
2001-09-13,53.71
2001-09-14,49.56
2001-09-15,51.34
2001-09-16,48.37
2001-09-17,44.39
2001-09-18,39.29
2001-09-19,36.53
2001-09-20,32.45
2001-09-21,35.39
2001-09-22,39.59
2001-09-23,41.08
2001-09-24,41.08
2001-09-25,45.15
2001-09-26,42.47
2001-09-27,41.74
2001-09-28,36.79
2001-09-29,36.59
2001-09-30,37.86
2001-10-01,38.02
2001-10-02,41.14
2001-10-03,35.66
2001-10-04,36.23
2001-10-05,36.06
2001-10-06,38.24
2001-10-07,29.56
2001-10-08,30.23
2001-10-09,24.76
2001-10-10,33.2
2001-10-11,35.18
2001-10-12,33.5
2001-10-13,41.87
2001-10-14,35.96
2001-10-15,39.25
2001-10-16,38.66
2001-10-17,25.81
2001-10-18,22.08
2001-10-19,29.78
2001-10-20,36.74
2001-10-21,30.27
2001-10-22,42.43
2001-10-23,28.88
2001-10-24,24.46
2001-10-25,28.71
2001-10-26,30.35
2001-10-27,32.8
2001-10-28,39.37
2001-10-29,42.08
2001-10-30,42.92
2001-10-31,39.25
2001-11-01,39.47
2001-11-02,35.2
2001-11-03,31.04
2001-11-04,29.84
2001-11-05,35.19
2001-11-06,27.53
2001-11-07,20.47
2001-11-08,23.49
2001-11-09,26.73
2001-11-10,30.38
2001-11-11,40.47
2001-11-12,41.68
2001-11-13,37.63
2001-11-14,40.5
2001-11-15,40.39
2001-11-16,40.11
2001-11-17,28.39
2001-11-18,27.46
2001-11-19,35.46
2001-11-20,35.04
2001-11-21,36.53
2001-11-22,30.84
2001-11-23,27.05
2001-11-24,29.85
2001-11-25,28.25
2001-11-26,21.12
2001-11-27,13.26
2001-11-28,28.55
2001-11-29,24.85
2001-11-30,27.74
2001-12-01,30.09
2001-12-02,28.97
2001-12-03,23.47
2001-12-04,25.07
2001-12-05,33.39
2001-12-06,31.41
2001-12-07,22.33
2001-12-08,20.09
2001-12-09,20.13
2001-12-10,22.8
2001-12-11,25.03
2001-12-12,21.66
2001-12-13,33.68
2001-12-14,22.8
2001-12-15,25.22
2001-12-16,30.57
2001-12-17,26.48
2001-12-18,29.92
2001-12-19,31.45
2001-12-20,27.61
2001-12-21,25.14
2001-12-22,28.74
2001-12-23,23.06
2001-12-24,11.54
2001-12-25,19.46
2001-12-26,28.76
2001-12-27,32.45
2001-12-28,28.94
2001-12-29,33.9
2001-12-30,38.87
2001-12-31,39.89
2002-01-01,42.33
2002-01-02,35.43
2002-01-03,30.62
2002-01-04,25.44
2002-01-05,31.84
2002-01-06,36.1
2002-01-07,31.6
2002-01-08,35.6
2002-01-09,29.17
2002-01-10,28.57
2002-01-11,30.39
2002-01-12,27.59
2002-01-13,25.69
2002-01-14,20.62
2002-01-15,17.68
2002-01-16,19.0
2002-01-17,21.56
2002-01-18,19.36
2002-01-19,22.22
2002-01-20,28.87
2002-01-21,27.62
2002-01-22,20.72
2002-01-23,24.8
2002-01-24,22.54
2002-01-25,28.13
2002-01-26,22.16
2002-01-27,15.65
2002-01-28,11.2
2002-01-29,10.01
2002-01-30,13.58
2002-01-31,16.82
2002-02-01,25.7
2002-02-02,18.65
2002-02-03,20.36
2002-02-04,14.71
2002-02-05,14.12
2002-02-06,24.4
2002-02-07,31.03
2002-02-08,25.07
2002-02-09,20.08
2002-02-10,21.81
2002-02-11,24.06
2002-02-12,22.57
2002-02-13,26.68
2002-02-14,22.05
2002-02-15,23.11
2002-02-16,31.4
2002-02-17,31.13
2002-02-18,29.05
2002-02-19,33.12
2002-02-20,36.49
2002-02-21,40.51
2002-02-22,38.84
2002-02-23,33.1
2002-02-24,27.9
2002-02-25,24.33
2002-02-26,25.97
2002-02-27,24.65
2002-02-28,18.26
2002-03-01,15.7
2002-03-02,18.37
2002-03-03,22.26
2002-03-04,27.78
2002-03-05,32.49
2002-03-06,34.37
2002-03-07,22.02
2002-03-08,16.9
2002-03-09,24.97
2002-03-10,31.67
2002-03-11,35.82
2002-03-12,28.95
2002-03-13,23.41
2002-03-14,20.82
2002-03-15,21.79
2002-03-16,20.87
2002-03-17,18.78
2002-03-18,20.86
2002-03-19,30.22
2002-03-20,33.1
2002-03-21,33.09
2002-03-22,33.65
2002-03-23,34.51
2002-03-24,29.61
2002-03-25,28.53
2002-03-26,29.86
2002-03-27,29.1
2002-03-28,36.99
2002-03-29,33.96
2002-03-30,30.34
2002-03-31,30.48
2002-04-01,34.99
2002-04-02,36.06
2002-04-03,35.77
2002-04-04,38.52
2002-04-05,41.62
2002-04-06,36.51
2002-04-07,35.53
2002-04-08,37.42
2002-04-09,39.8
2002-04-10,35.0
2002-04-11,40.0
2002-04-12,34.0
2002-04-13,46.0
2002-04-14,38.0
2002-04-15,23.0
2002-04-16,29.0
2002-04-17,26.0
2002-04-18,23.0
2002-04-19,25.0
2002-04-20,27.0
2002-04-21,26.0
2002-04-22,30.0
2002-04-23,17.0
2002-04-24,21.23
2002-04-25,33.75
2002-04-26,31.32
2002-04-27,26.67
2002-04-28,28.93
2002-04-29,34.34
2002-04-30,37.48
2002-05-01,38.49
2002-05-02,39.25
2002-05-03,29.49
2002-05-04,30.46
2002-05-05,33.08
2002-05-06,30.94
2002-05-07,18.4
2002-05-08,21.08
2002-05-09,27.39
2002-05-10,26.38
2002-05-11,30.51
2002-05-12,33.27
2002-05-13,38.64
2002-05-14,32.94
2002-05-15,33.32
2002-05-16,33.38
2002-05-17,39.08
2002-05-18,37.78
2002-05-19,37.97
2002-05-20,33.99
2002-05-21,32.79
2002-05-22,30.65
2002-05-23,31.83
2002-05-24,38.98
2002-05-25,40.96
2002-05-26,45.44
2002-05-27,47.94
2002-05-28,50.02
2002-05-29,51.89
2002-05-30,44.32
2002-05-31,39.18
2002-06-01,47.88
2002-06-02,40.13
2002-06-03,40.28
2002-06-04,46.49
2002-06-05,46.86
2002-06-06,37.07
2002-06-07,33.67
2002-06-08,26.96
2002-06-09,34.49
2002-06-10,39.39
2002-06-11,40.66
2002-06-12,42.1
2002-06-13,45.32
2002-06-14,46.67
2002-06-15,46.37
2002-06-16,44.59
2002-06-17,46.04
2002-06-18,42.72
2002-06-19,34.38
2002-06-20,42.93
2002-06-21,46.74
2002-06-22,50.56
2002-06-23,47.83
2002-06-24,48.06
2002-06-25,50.15
2002-06-26,54.11
2002-06-27,51.33
2002-06-28,49.48
2002-06-29,48.05
2002-06-30,44.68
2002-07-01,45.96
2002-07-02,46.97
2002-07-03,40.8
2002-07-04,38.46
2002-07-05,44.02
2002-07-06,49.28
2002-07-07,50.24
2002-07-08,40.89
2002-07-09,48.09
2002-07-10,53.15
2002-07-11,57.16
2002-07-12,59.62
2002-07-13,59.82
2002-07-14,55.91
2002-07-15,52.89
2002-07-16,51.71
2002-07-17,51.06
2002-07-18,51.18
2002-07-19,50.67
2002-07-20,48.41
2002-07-21,51.31
2002-07-22,53.0
2002-07-23,51.47
2002-07-24,48.24
2002-07-25,48.95
2002-07-26,51.26
2002-07-27,48.38
2002-07-28,46.43
2002-07-29,50.65
2002-07-30,51.52
2002-07-31,48.66
2002-08-01,44.52
2002-08-02,42.98
2002-08-03,43.26
2002-08-04,40.68
2002-08-05,36.57
2002-08-06,36.97
2002-08-07,37.18
2002-08-08,41.4
2002-08-09,43.74
2002-08-10,48.92
2002-08-11,49.9
2002-08-12,47.3
2002-08-13,49.42
2002-08-14,50.96
2002-08-15,48.31
2002-08-16,43.36
2002-08-17,43.47
2002-08-18,38.93
2002-08-19,42.79
2002-08-20,42.33
2002-08-21,38.95
2002-08-22,41.47
2002-08-23,44.82
2002-08-24,47.81
2002-08-25,47.49
2002-08-26,45.15
2002-08-27,44.46
2002-08-28,48.85
2002-08-29,50.14
2002-08-30,46.75
2002-08-31,35.92
2002-09-01,46.41
2002-09-02,48.11
2002-09-03,46.55
2002-09-04,38.8
2002-09-05,33.24
2002-09-06,35.19
2002-09-07,34.6
2002-09-08,34.29
2002-09-09,37.06
2002-09-10,40.64
2002-09-11,42.37
2002-09-12,43.05
2002-09-13,45.17
2002-09-14,40.13
2002-09-15,41.05
2002-09-16,42.73
2002-09-17,46.83
2002-09-18,38.79
2002-09-19,38.92
2002-09-20,38.28
2002-09-21,36.08
2002-09-22,37.77
2002-09-23,39.95
2002-09-24,38.82
2002-09-25,34.35
2002-09-26,31.21
2002-09-27,35.24
2002-09-28,36.43
2002-09-29,36.37
2002-09-30,30.78
2002-10-01,24.63
2002-10-02,26.58
2002-10-03,36.57
2002-10-04,42.46
2002-10-05,42.95
2002-10-06,37.95
2002-10-07,34.17
2002-10-08,28.8
2002-10-09,31.99
2002-10-10,27.79
2002-10-11,18.32
2002-10-12,16.29
2002-10-13,23.65
2002-10-14,22.89
2002-10-15,21.72
2002-10-16,26.05
2002-10-17,32.22
2002-10-18,32.17
2002-10-19,33.51
2002-10-20,35.17
2002-10-21,35.74
2002-10-22,30.99
2002-10-23,29.79
2002-10-24,26.22
2002-10-25,25.21
2002-10-26,25.34
2002-10-27,28.48
2002-10-28,31.5
2002-10-29,24.58
2002-10-30,8.47
2002-10-31,2.94
2002-11-01,3.85
2002-11-02,6.82
2002-11-03,11.84
2002-11-04,17.12
2002-11-05,19.69
2002-11-06,23.65
2002-11-07,36.08
2002-11-08,35.03
2002-11-09,33.94
2002-11-10,34.66
2002-11-11,36.64
2002-11-12,37.05
2002-11-13,34.21
2002-11-14,35.89
2002-11-15,28.02
2002-11-16,30.65
2002-11-17,30.44
2002-11-18,30.53
2002-11-19,34.16
2002-11-20,34.83
2002-11-21,33.85
2002-11-22,32.69
2002-11-23,33.41
2002-11-24,34.52
2002-11-25,18.13
2002-11-26,18.96
2002-11-27,22.98
2002-11-28,26.62
2002-11-29,26.73
2002-11-30,27.3
2002-12-01,26.26
2002-12-02,24.34
2002-12-03,24.62
2002-12-04,32.21
2002-12-05,30.17
2002-12-06,29.25
2002-12-07,25.34
2002-12-08,24.54
2002-12-09,30.52
2002-12-10,31.43
2002-12-11,33.95
2002-12-12,35.11
2002-12-13,36.79
2002-12-14,38.08
2002-12-15,32.56
2002-12-16,32.13
2002-12-17,26.69
2002-12-18,25.51
2002-12-19,24.26
2002-12-20,29.93
2002-12-21,28.22
2002-12-22,24.52
2002-12-23,19.7
2002-12-24,22.55
2002-12-25,25.19
2002-12-26,31.72
2002-12-27,34.7
2002-12-28,34.07
2002-12-29,27.76
2002-12-30,36.3
2002-12-31,33.92
2003-01-01,30.15
2003-01-02,29.82
2003-01-03,32.46
2003-01-04,34.66
2003-01-05,28.24
2003-01-06,20.78
2003-01-07,19.68
2003-01-08,19.12
2003-01-09,23.24
2003-01-10,28.31
2003-01-11,34.5
2003-01-12,36.23
2003-01-13,37.82
2003-01-14,43.43
2003-01-15,39.04
2003-01-16,33.58
2003-01-17,33.9
2003-01-18,30.69
2003-01-19,30.35
2003-01-20,30.62
2003-01-21,34.56
2003-01-22,36.95
2003-01-23,34.48
2003-01-24,37.21
2003-01-25,44.13
2003-01-26,45.45
2003-01-27,36.56
2003-01-28,32.42
2003-01-29,36.27
2003-01-30,45.93
2003-01-31,42.3
2003-02-01,29.37
2003-02-02,27.47
2003-02-03,25.93
2003-02-04,20.45
2003-02-05,20.24
2003-02-06,16.97
2003-02-07,15.2
2003-02-08,18.82
2003-02-09,23.43
2003-02-10,23.62
2003-02-11,22.65
2003-02-12,29.04
2003-02-13,38.85
2003-02-14,36.16
2003-02-15,35.84
2003-02-16,29.9
2003-02-17,28.71
2003-02-18,31.26
2003-02-19,32.67
2003-02-20,30.63
2003-02-21,33.47
2003-02-22,24.92
2003-02-23,21.97
2003-02-24,18.85
2003-02-25,13.51
2003-02-26,19.69
2003-02-27,24.68
2003-02-28,25.86
2003-03-01,28.31
2003-03-02,27.11
2003-03-03,27.24
2003-03-04,26.86
2003-03-05,28.18
2003-03-06,30.44
2003-03-07,32.2
2003-03-08,33.67
2003-03-09,37.88
2003-03-10,39.61
2003-03-11,40.81
2003-03-12,39.94
2003-03-13,33.32
2003-03-14,36.18
2003-03-15,34.38
2003-03-16,33.0
2003-03-17,26.63
2003-03-18,27.32
2003-03-19,32.02
2003-03-20,31.68
2003-03-21,38.93
2003-03-22,36.95
2003-03-23,24.37
2003-03-24,27.21
2003-03-25,39.01
2003-03-26,31.13
2003-03-27,25.17
2003-03-28,29.2
2003-03-29,36.18
2003-03-30,39.52
2003-03-31,39.05
2003-04-01,27.84
2003-04-02,22.23
2003-04-03,27.24
2003-04-04,26.62
2003-04-05,25.47
2003-04-06,31.83
2003-04-07,36.71
2003-04-08,38.39
2003-04-09,38.74
2003-04-10,38.74
2003-04-11,35.28
2003-04-12,35.18
2003-04-13,32.73
2003-04-14,30.95
2003-04-15,28.5
2003-04-16,33.02
2003-04-17,31.15
2003-04-18,26.28
2003-04-19,28.98
2003-04-20,34.69
2003-04-21,36.34
2003-04-22,35.23
2003-04-23,36.27
2003-04-24,31.18
2003-04-25,28.9
2003-04-26,27.25
2003-04-27,31.45
2003-04-28,33.68
2003-04-29,33.15
2003-04-30,32.51
2003-05-01,32.92
2003-05-02,37.13
2003-05-03,37.43
2003-05-04,32.79
2003-05-05,26.93
2003-05-06,32.84
2003-05-07,29.98
2003-05-08,30.49
2003-05-09,31.28
2003-05-10,35.62
2003-05-11,37.08
2003-05-12,39.93
2003-05-13,41.02
2003-05-14,42.3
2003-05-15,34.96
2003-05-16,25.82
2003-05-17,22.86
2003-05-18,19.71
2003-05-19,24.01
2003-05-20,37.43
2003-05-21,43.15
2003-05-22,46.48
2003-05-23,48.6
2003-05-24,48.8
2003-05-25,45.94
2003-05-26,44.62
2003-05-27,46.99
2003-05-28,52.24
2003-05-29,52.3
2003-05-30,50.76
2003-05-31,40.36
2003-06-01,40.81
2003-06-02,41.38
2003-06-03,42.71
2003-06-04,41.12
2003-06-05,42.17
2003-06-06,46.59
2003-06-07,50.53
2003-06-08,49.29
2003-06-09,40.7
2003-06-10,39.81
2003-06-11,39.46
2003-06-12,41.63
2003-06-13,43.76
2003-06-14,43.12
2003-06-15,45.3
2003-06-16,47.96
2003-06-17,51.02
2003-06-18,53.29
2003-06-19,41.61
2003-06-20,37.63
2003-06-21,37.39
2003-06-22,36.24
2003-06-23,38.02
2003-06-24,40.09
2003-06-25,43.1
2003-06-26,45.15
2003-06-27,48.25
2003-06-28,47.22
2003-06-29,46.93
2003-06-30,43.65
2003-07-01,44.93
2003-07-02,44.62
2003-07-03,45.5
2003-07-04,45.78
2003-07-05,45.62
2003-07-06,47.53
2003-07-07,49.75
2003-07-08,45.35
2003-07-09,46.82
2003-07-10,50.44
2003-07-11,51.54
2003-07-12,49.67
2003-07-13,46.52
2003-07-14,48.35
2003-07-15,52.74
2003-07-16,52.37
2003-07-17,51.46
2003-07-18,52.74
2003-07-19,53.86
2003-07-20,53.66
2003-07-21,57.18
2003-07-22,61.29
2003-07-23,62.25
2003-07-24,63.47
2003-07-25,58.3
2003-07-26,55.28
2003-07-27,52.54
2003-07-28,53.91
2003-07-29,54.73
2003-07-30,55.81
2003-07-31,50.91
2003-08-01,52.39
2003-08-02,54.79
2003-08-03,56.05
2003-08-04,51.85
2003-08-05,50.75
2003-08-06,47.76
2003-08-07,46.14
2003-08-08,47.26
2003-08-09,47.92
2003-08-10,46.81
2003-08-11,45.09
2003-08-12,44.64
2003-08-13,46.19
2003-08-14,45.88
2003-08-15,42.75
2003-08-16,40.8
2003-08-17,48.53
2003-08-18,53.29
2003-08-19,55.36
2003-08-20,50.46
2003-08-21,52.49
2003-08-22,54.87
2003-08-23,51.68
2003-08-24,49.38
2003-08-25,49.83
2003-08-26,50.91
2003-08-27,49.22
2003-08-28,47.35
2003-08-29,48.48
2003-08-30,44.7
2003-08-31,48.18
2003-09-01,49.5
2003-09-02,47.57
2003-09-03,50.32
2003-09-04,53.89
2003-09-05,51.41
2003-09-06,43.02
2003-09-07,43.32
2003-09-08,38.98
2003-09-09,43.95
2003-09-10,42.62
2003-09-11,46.7
2003-09-12,35.56
2003-09-13,33.28
2003-09-14,35.4
2003-09-15,41.04
2003-09-16,37.61
2003-09-17,32.88
2003-09-18,35.12
2003-09-19,43.29
2003-09-20,37.44
2003-09-21,36.25
2003-09-22,41.3
2003-09-23,42.23
2003-09-24,36.32
2003-09-25,37.07
2003-09-26,42.03
2003-09-27,49.11
2003-09-28,44.35
2003-09-29,41.96
2003-09-30,39.35
2003-10-01,41.97
2003-10-02,43.54
2003-10-03,42.51
2003-10-04,43.88
2003-10-05,45.46
2003-10-06,43.03
2003-10-07,40.05
2003-10-08,38.5
2003-10-09,31.89
2003-10-10,29.61
2003-10-11,33.98
2003-10-12,32.55
2003-10-13,29.04
2003-10-14,27.36
2003-10-15,33.99
2003-10-16,39.93
2003-10-17,34.54
2003-10-18,34.35
2003-10-19,40.46
2003-10-20,42.85
2003-10-21,41.1
2003-10-22,37.94
2003-10-23,30.68
2003-10-24,23.89
2003-10-25,28.29
2003-10-26,34.49
2003-10-27,36.77
2003-10-28,40.99
2003-10-29,29.63
2003-10-30,23.55
2003-10-31,14.51
2003-11-01,14.61
2003-11-02,28.25
2003-11-03,24.72
2003-11-04,26.26
2003-11-05,30.58
2003-11-06,30.14
2003-11-07,36.76
2003-11-08,38.26
2003-11-09,34.91
2003-11-10,35.57
2003-11-11,34.82
2003-11-12,28.45
2003-11-13,28.98
2003-11-14,33.37
2003-11-15,34.66
2003-11-16,35.69
2003-11-17,34.02
2003-11-18,35.44
2003-11-19,32.74
2003-11-20,22.94
2003-11-21,20.87
2003-11-22,14.89
2003-11-23,18.19
2003-11-24,23.05
2003-11-25,26.87
2003-11-26,27.1
2003-11-27,21.08
2003-11-28,29.9
2003-11-29,37.08
2003-11-30,36.88
2003-12-01,36.89
2003-12-02,35.96
2003-12-03,36.19
2003-12-04,33.26
2003-12-05,39.34
2003-12-06,35.74
2003-12-07,31.06
2003-12-08,27.34
2003-12-09,29.83
2003-12-10,31.58
2003-12-11,32.05
2003-12-12,32.82
2003-12-13,35.22
2003-12-14,26.54
2003-12-15,20.4
2003-12-16,25.41
2003-12-17,27.56
2003-12-18,23.56
2003-12-19,29.82
2003-12-20,33.9
2003-12-21,33.16
2003-12-22,32.23
2003-12-23,32.65
2003-12-24,32.16
2003-12-25,24.86
2003-12-26,17.67
2003-12-27,23.8
2003-12-28,27.5
2003-12-29,28.15
2003-12-30,20.66
2003-12-31,29.69
2004-01-01,27.5
2004-01-02,21.57
2004-01-03,20.1
2004-01-04,21.89
2004-01-05,20.97
2004-01-06,25.58
2004-01-07,30.4
2004-01-08,33.13
2004-01-09,32.05
2004-01-10,30.18
2004-01-11,25.91
2004-01-12,26.46
2004-01-13,27.43
2004-01-14,29.91
2004-01-15,32.89
2004-01-16,31.24
2004-01-17,28.0
2004-01-18,29.39
2004-01-19,30.87
2004-01-20,27.9
2004-01-21,19.6
2004-01-22,16.51
2004-01-23,25.14
2004-01-24,27.41
2004-01-25,21.89
2004-01-26,24.28
2004-01-27,31.75
2004-01-28,33.56
2004-01-29,35.6
2004-01-30,26.22
2004-01-31,23.33
2004-02-01,30.51
2004-02-02,31.65
2004-02-03,26.82
2004-02-04,25.86
2004-02-05,22.29
2004-02-06,26.76
2004-02-07,23.41
2004-02-08,18.42
2004-02-09,20.75
2004-02-10,18.85
2004-02-11,21.05
2004-02-12,18.27
2004-02-13,22.34
2004-02-14,29.8
2004-02-15,30.17
2004-02-16,33.83
2004-02-17,33.71
2004-02-18,31.85
2004-02-19,27.8
2004-02-20,24.87
2004-02-21,29.9
2004-02-22,32.99
2004-02-23,32.97
2004-02-24,30.15
2004-02-25,33.43
2004-02-26,31.82
2004-02-27,29.66
2004-02-28,28.14
2004-02-29,30.49
2004-03-01,32.71
2004-03-02,28.37
2004-03-03,29.4
2004-03-04,31.72
2004-03-05,33.55
2004-03-06,31.5
2004-03-07,35.24
2004-03-08,38.26
2004-03-09,38.98
2004-03-10,32.73
2004-03-11,33.1
2004-03-12,36.93
2004-03-13,34.58
2004-03-14,35.16
2004-03-15,35.25
2004-03-16,36.55
2004-03-17,38.16
2004-03-18,37.69
2004-03-19,24.89
2004-03-20,33.48
2004-03-21,38.71